ETD5 VOMM-EPWA

Flight info

Callsign ETD5
Flight time N/A
Altitude 36000
Route DOHIA DCT DOLKI Q8 AGELA N571 MENSA/N0497F340 N571 IVOXI M557 MITIX/N0484F380 M557 TUMAK DCT DAVUS DCT TASMI UL602 GADSI UM860 ODALI UL852 RUXEV/N0482F400 UL852 NEGEM DCT LUGEB DCT KEKED DCT LENOV DCT ORTEB DCT KONZI DCT LOGDA
Aircraft B77L/H-SDE1E2E3FGHIJ2J3J4J5M1RWXY/LB1D1

Departure

Time N/A
Airport Chennai International Airport (VOMM)

Arrival

Time 2026-05-07 21:49
Airport Warsaw Chopin Airport (EPWA)
Time Latitude Longitude Altitude Speed Heading
2026-05-07 21:38 51.87858 20.87359 19422 ft 332 kts 327°
2026-05-07 21:38 51.89906 20.85645 18702 ft 330 kts 328°
2026-05-07 21:38 51.91939 20.83952 18021 ft 326 kts 328°
2026-05-07 21:39 51.93948 20.82291 17290 ft 322 kts 331°
2026-05-07 21:39 51.96114 20.81361 16546 ft 327 kts 356°
2026-05-07 21:39 51.98341 20.81990 15833 ft 328 kts 22°
2026-05-07 21:39 52.00220 20.84032 15144 ft 325 kts 46°
2026-05-07 21:40 52.01452 20.86981 14465 ft 319 kts 73°
2026-05-07 21:40 52.01671 20.90460 13755 ft 307 kts 106°
2026-05-07 21:40 52.00828 20.93525 13001 ft 294 kts 132°
2026-05-07 21:40 51.99465 20.95949 12302 ft 288 kts 142°
2026-05-07 21:41 51.97864 20.97809 11624 ft 281 kts 155°
2026-05-07 21:41 51.96155 20.99298 10935 ft 278 kts 157°
2026-05-07 21:41 51.94445 21.00745 10308 ft 276 kts 156°
2026-05-07 21:41 51.92753 21.02190 9674 ft 274 kts 156°
2026-05-07 21:42 51.91071 21.03626 9044 ft 272 kts 156°
2026-05-07 21:42 51.89533 21.05372 8399 ft 273 kts 134°
2026-05-07 21:42 51.88670 21.08060 7609 ft 273 kts 104°
2026-05-07 21:42 51.88696 21.11130 6635 ft 277 kts 77°
2026-05-07 21:43 51.89482 21.13949 5706 ft 276 kts 54°
2026-05-07 21:43 51.90909 21.15911 4988 ft 264 kts 22°
2026-05-07 21:43 51.92610 21.16370 4598 ft 237 kts 348°
2026-05-07 21:43 51.94081 21.15666 4390 ft 208 kts 336°
2026-05-07 21:44 51.95393 21.14880 4064 ft 196 kts 334°
2026-05-07 21:44 51.96609 21.14029 3689 ft 184 kts 330°
2026-05-07 21:44 51.97749 21.13109 3553 ft 182 kts 328°
2026-05-07 21:44 51.98858 21.12164 3463 ft 183 kts 327°
2026-05-07 21:45 51.99990 21.11192 3290 ft 183 kts 326°
2026-05-07 21:45 52.01104 21.10214 3126 ft 179 kts 326°
2026-05-07 21:45 52.02186 21.09275 2979 ft 174 kts 326°
2026-05-07 21:45 52.03257 21.08345 2877 ft 175 kts 326°
2026-05-07 21:46 52.04335 21.07404 2676 ft 177 kts 327°
2026-05-07 21:46 52.05424 21.06455 2501 ft 178 kts 328°
2026-05-07 21:46 52.06509 21.05511 2242 ft 175 kts 327°
2026-05-07 21:46 52.07567 21.04587 1986 ft 169 kts 330°
2026-05-07 21:47 52.08587 21.03701 1803 ft 166 kts 330°
2026-05-07 21:47 52.09605 21.02811 1542 ft 166 kts 330°
2026-05-07 21:47 52.10611 21.01928 1374 ft 162 kts 330°
2026-05-07 21:47 52.11628 21.01044 1123 ft 168 kts 330°
2026-05-07 21:48 52.12619 21.00155 1003 ft 158 kts 325°
2026-05-07 21:48 52.13603 20.99307 802 ft 156 kts 330°
2026-05-07 21:48 52.14497 20.98509 592 ft 139 kts 326°
2026-05-07 21:48 52.15320 20.97830 392 ft 127 kts 328°
2026-05-07 21:49 52.16042 20.97183 366 ft 105 kts 330°
2026-05-07 21:49 52.16353 20.96933 364 ft 17 kts 339°
2026-05-07 21:49 52.16544 20.96748 366 ft 44 kts 326°
2026-05-07 21:49 52.16880 20.96512 360 ft 62 kts 356°
2026-05-07 21:50 52.17090 20.96605 364 ft 17 kts 90°
2026-05-07 21:50 52.17073 20.96733 360 ft 15 kts 60°
2026-05-07 21:50 52.17129 20.96932 361 ft 13 kts 68°
2026-05-07 21:50 52.17150 20.97006 360 ft 0 kts 62°